Wind_Speed
15 16 16 17 17 18 20 20 21 21 22 23 23 23 23 24 25 26 26 25 25 25 25 26 27 28 27 27 28 28 29 29 28 27 26 25 24 24 24 24 24 24 24
17 17 18 19 21 22 23 23 25 26 26 27 27 28 28 29 29 29 30 29 29 30 30 30 30 31 31 32 32 32 32 32 33 32 31 30 28 28 28 27 27 26 26
16 16 18 19 20 24 25 26 28 28 28 31 31 32 33 33 33 32 32 33 33 33 33 34 34 34 34 35 36 37 36 36 36 36 35 34 33 31 30 30 30 29 28
15 15 18 19 21 24 25 25 26 27 27 31 33 33 34 34 34 35 36 35 36 37 37 36 37 37 37 38 38 39 40 40 40 40 39 39 38 36 34 33 33 32 31
17 17 24 25 28 27 27 28 28 29 31 32 33 32 35 35 34 35 36 36 37 38 39 40 40 41 41 41 42 42 43 43 43 44 43 43 42 41 39 37 37 36 35
23 27 31 32 32 26 27 30 32 34 37 41 40 38 39 38 37 37 38 39 39 39 41 41 41 42 43 44 45 45 45 46 47 47 46 46 46 45 44 42 41 39 38
33 35 31 31 30 32 34 35 33 38 39 42 43 44 45 45 44 44 44 44 43 43 42 43 45 44 44 45 46 46 47 48 48 49 50 50 49 48 47 46 45 43 42
25 21 20 20 21 23 25 27 28 32 34 35 37 39 40 38 41 42 46 46 48 48 50 51 51 48 47 49 48 48 48 48 49 49 50 52 53 53 51 50 48 48 46
18 19 19 20 20 21 21 22 23 24 25 26 28 29 31 30 30 26 29 33 38 40 41 44 44 47 51 50 47 51 51 52 51 51 52 52 54 55 56 55 53 52 50
13 12 12 13 14 16 17 19 20 21 23 25 26 27 29 32 34 33 29 30 33 34 36 40 44 46 47 49 54 55 56 53 54 56 56 58 56 56 57 58 58 57 54
9 10 11 13 15 17 19 20 21 21 21 21 22 23 25 28 34 41 44 39 36 37 37 37 38 41 43 47 51 56 55 58 60 58 58 56 60 60 59 59 60 61 59
10 12 14 16 17 18 20 21 22 23 23 24 26 29 31 33 35 41 45 47 48 42 42 43 44 43 43 46 48 51 53 56 59 58 62 63 61 63 63 62 60 58 60
10 12 13 14 16 17 19 20 22 23 25 27 29 31 33 35 37 40 44 47 51 51 50 46 44 48 51 52 49 50 54 59 58 60 61 62 63 59 58 62 65 63 60
9 11 13 15 16 18 20 23 24 25 26 28 31 33 35 37 39 42 45 50 53 54 54 55 54 52 49 52 56 54 53 54 60 62 60 64 62 65 62 58 62 67 67
11 13 15 16 18 20 22 24 26 27 29 31 33 36 38 40 42 44 46 48 53 58 57 60 61 58 58 54 51 54 57 55 53 54 58 60 64 65 68 65 59 65 70
12 14 15 18 20 22 23 25 27 28 31 33 35 38 40 42 44 46 48 49 50 54 61 60 61 61 60 57 52 49 49 53 57 52 52 58 60 65 68 70 71 63 66
13 15 17 19 20 23 24 27 29 31 33 36 38 40 43 45 46 47 48 49 49 51 58 60 59 57 56 56 53 49 47 48 50 54 55 52 59 64 64 65 70 74 72
14 16 18 20 22 25 27 29 31 33 35 38 41 43 45 48 49 49 50 50 50 50 53 59 56 54 52 51 53 53 50 46 48 49 53 55 56 57 54 63 65 69 76
15 18 20 22 24 26 28 30 32 34 37 40 43 45 47 49 49 49 50 50 49 48 49 52 54 50 49 49 50 49 50 49 48 49 50 53 53 50 50 59 60 63 67
16 19 21 22 24 27 29 31 33 36 39 42 44 47 48 48 49 50 50 50 50 49 49 49 50 49 47 46 50 52 49 49 49 46 46 49 50 49 48 49 53 56 60
17 19 21 23 25 28 30 32 35 38 41 42 44 45 45 45 44 45 48 48 49 49 50 50 49 48 47 48 49 49 50 49 46 45 42 43 46 44 43 41 47 45 49
18 20 21 23 25 28 31 35 37 39 42 44 44 42 43 43 43 42 43 42 43 47 47 47 45 45 45 45 46 46 47 49 49 47 45 37 37 38 36 37 47 46 42
18 20 22 24 25 27 31 34 37 39 41 41 42 43 43 43 44 45 45 44 43 45 48 47 43 41 42 43 45 46 43 48 48 46 46 37 30 29 26 27 33 38 37
18 19 21 24 26 29 31 34 37 37 37 38 40 42 42 44 46 46 47 47 45 46 47 46 44 41 39 41 40 44 45 46 45 41 43 35 24 20 21 23 19 16 23
16 18 20 23 27 29 32 34 36 36 36 37 37 39 42 44 47 50 50 49 47 46 46 45 43 39 37 35 38 40 41 40 42 40 34 32 18 17 14 17 25 21 26
16 17 20 23 26 30 32 35 36 36 36 37 36 37 39 44 48 51 51 51 50 46 48 48 44 39 35 33 32 31 35 39 40 44 35 32 23 19 16 19 19 24 26
Wind_Direction
253 254 254 255 258 260 261 262 262 263 264 266 267 267 268 272 276 277 278 277 274 270 266 261 258 256 256 257 257 258 259 261 263 264 265 266 268 270 271 271 272 273 275
264 265 267 267 268 267 268 268 270 270 270 270 270 271 271 270 270 272 273 274 274 275 275 273 269 264 261 259 258 257 258 260 261 263 264 265 266 267 269 269 269 270 272
284 278 278 279 279 280 276 276 274 276 280 279 278 277 276 277 278 275 275 276 277 276 276 275 274 274 271 267 263 261 259 259 259 261 263 265 266 267 268 268 268 266 267
291 295 294 296 294 290 289 283 282 282 285 282 283 282 284 282 280 283 282 282 281 279 276 274 272 271 270 269 266 264 263 261 261 261 262 263 265 267 268 267 266 265 264
295 295 299 296 299 296 288 288 287 287 286 287 285 285 286 282 285 284 281 279 279 278 278 276 275 273 272 270 269 268 265 263 261 261 261 263 264 265 265 266 266 264 262
289 299 290 286 290 288 289 292 287 290 284 294 292 291 290 288 288 285 282 286 286 281 275 276 274 273 271 271 272 270 269 268 265 263 260 259 261 264 266 266 265 263 261
295 296 291 288 290 285 287 286 287 284 288 290 288 288 289 290 287 290 285 287 289 284 281 286 281 278 278 273 270 270 270 268 268 267 265 262 259 257 260 263 265 264 262
294 298 299 298 293 290 290 290 290 289 291 293 294 294 293 288 285 288 289 292 289 286 284 286 284 279 279 275 271 269 268 268 267 265 266 265 262 260 257 256 258 260 261
294 298 302 305 307 309 311 311 311 311 308 307 305 304 308 308 309 306 301 297 295 294 292 289 288 283 279 275 276 273 269 266 266 265 261 260 262 261 260 259 257 255 257
303 304 304 306 308 311 312 312 311 312 314 316 316 315 314 316 319 318 317 314 310 305 301 297 293 291 288 284 281 277 274 268 265 263 263 261 257 258 258 258 258 258 257
305 317 323 327 329 330 329 327 325 324 321 320 320 318 317 317 317 317 314 310 306 305 302 299 295 290 287 285 281 279 278 274 269 267 262 264 262 259 257 257 258 258 258
325 331 334 335 333 331 329 329 329 329 330 329 326 325 324 322 320 317 314 314 312 310 307 304 301 298 293 288 285 283 281 275 271 269 264 263 260 256 256 255 255 255 257
331 332 331 331 333 333 333 332 332 332 330 329 327 326 324 323 322 320 317 314 312 310 308 306 305 304 301 296 291 286 281 279 275 270 267 264 256 255 255 255 255 252 251
320 323 329 333 338 338 336 334 334 332 331 330 329 328 328 327 325 323 321 317 311 310 309 306 309 306 302 300 297 293 287 279 273 272 269 264 261 257 255 253 251 251 249
326 330 333 337 339 338 337 336 335 333 332 333 332 331 330 329 327 325 323 320 318 312 306 308 309 308 306 304 300 295 291 286 281 275 268 264 262 259 253 251 251 248 248
323 328 334 339 337 336 334 333 332 333 334 333 333 332 330 329 327 325 323 321 318 314 308 309 308 308 307 307 306 300 292 285 284 280 271 265 262 258 257 252 249 246 245
325 334 339 336 334 334 335 334 336 336 335 335 334 332 330 329 326 324 322 320 317 314 310 307 307 307 307 307 306 302 298 291 282 279 279 270 263 260 257 255 251 245 246
333 335 333 334 336 337 337 338 337 335 334 334 334 334 332 330 327 325 323 321 319 315 311 308 308 308 306 307 305 304 301 296 291 283 277 275 267 265 265 257 254 251 247
329 330 333 337 337 338 338 338 337 336 336 336 336 335 333 330 328 327 325 323 320 316 312 308 308 310 309 309 305 304 301 299 295 289 283 276 275 270 262 259 255 253 251
328 330 332 335 336 337 338 337 338 339 339 339 338 336 332 331 331 330 328 325 322 319 315 311 310 310 311 311 312 311 305 305 301 296 285 279 276 273 268 264 256 257 254
324 328 333 335 336 337 338 340 341 341 342 341 338 335 335 336 334 332 328 327 324 321 319 315 312 310 310 310 314 314 316 312 311 311 299 283 274 272 267 266 253 261 260
325 330 332 334 337 339 341 343 343 344 343 339 338 339 338 337 336 335 331 330 327 327 325 322 317 311 311 315 317 320 322 327 320 326 317 293 284 275 274 264 252 262 266
326 328 331 334 337 340 343 343 344 344 340 339 340 341 342 341 339 339 336 335 334 335 336 332 325 319 314 321 322 321 321 324 328 333 326 306 296 282 277 268 262 263 270
323 327 332 334 338 341 343 344 345 343 342 343 344 343 344 344 343 342 340 339 337 336 338 337 332 325 319 320 322 319 318 316 326 335 331 311 307 296 276 259 279 283 292
322 329 331 336 339 341 343 345 343 343 345 346 346 347 347 345 346 347 344 341 339 335 337 339 336 330 324 321 320 315 321 323 325 335 339 311 310 290 253 270 287 298 293
322 327 334 339 339 341 344 343 343 345 346 347 349 349 348 348 349 348 345 341 338 336 338 339 339 335 331 324 321 318 322 321 320 331 338 322 314 304 284 292 280 288 303
Height
3190 3190 3190 3190 3190 3190 3190 3189 3189 3188 3187 3186 3186 3185 3184 3183 3182 3181 3181 3181 3181 3180 3180 3179 3178 3177 3177 3177 3177 3177 3176 3175 3175 3174 3172 3171 3170 3169 3169 3168 3167 3165 3165
3188 3189 3189 3188 3188 3187 3187 3186 3186 3185 3184 3183 3182 3181 3180 3179 3178 3177 3176 3175 3175 3174 3174 3173 3172 3171 3171 3170 3170 3169 3169 3168 3168 3167 3166 3165 3164 3164 3163 3162 3161 3160 3159
3185 3185 3185 3185 3185 3185 3184 3183 3182 3181 3181 3179 3178 3178 3176 3175 3174 3173 3172 3170 3169 3169 3168 3166 3165 3164 3164 3164 3163 3162 3161 3160 3159 3159 3158 3158 3158 3157 3156 3156 3155 3154 3153
3181 3182 3181 3181 3180 3179 3179 3178 3177 3176 3174 3173 3172 3172 3172 3170 3169 3168 3166 3164 3162 3161 3159 3158 3157 3156 3155 3154 3153 3152 3152 3151 3151 3151 3150 3150 3149 3149 3149 3148 3147 3146 3145
3179 3178 3177 3176 3176 3174 3173 3172 3170 3169 3167 3166 3166 3165 3164 3163 3161 3159 3159 3157 3155 3153 3151 3149 3148 3147 3146 3145 3144 3142 3142 3141 3140 3141 3141 3142 3141 3140 3139 3138 3138 3137 3136
3175 3173 3172 3171 3170 3168 3168 3166 3164 3161 3160 3158 3157 3156 3157 3155 3154 3150 3150 3148 3146 3144 3141 3140 3138 3137 3136 3135 3134 3134 3133 3131 3130 3129 3128 3129 3130 3131 3131 3130 3128 3127 3127
3169 3167 3165 3164 3162 3161 3161 3160 3158 3156 3153 3151 3149 3147 3147 3145 3144 3143 3141 3139 3136 3134 3133 3131 3130 3127 3125 3124 3123 3123 3121 3120 3119 3119 3118 3118 3117 3117 3119 3119 3119 3118 3117
3163 3162 3160 3159 3158 3156 3154 3153 3151 3149 3146 3142 3140 3136 3135 3138 3135 3133 3130 3128 3125 3124 3122 3119 3117 3115 3113 3111 3110 3110 3109 3108 3107 3106 3106 3105 3104 3105 3104 3104 3105 3106 3106
3159 3157 3155 3154 3152 3150 3148 3147 3144 3142 3139 3136 3133 3130 3126 3123 3122 3124 3122 3119 3115 3113 3109 3106 3104 3102 3099 3097 3096 3096 3095 3094 3093 3092 3091 3089 3090 3090 3090 3091 3091 3092 3093
3155 3154 3153 3151 3150 3148 3145 3142 3140 3137 3134 3131 3128 3124 3120 3115 3111 3111 3114 3111 3107 3104 3100 3096 3092 3089 3085 3082 3080 3080 3079 3078 3076 3075 3075 3075 3074 3074 3074 3076 3077 3079 3080
3152 3150 3149 3147 3145 3143 3140 3138 3135 3132 3130 3127 3124 3121 3118 3113 3107 3100 3096 3100 3099 3094 3090 3086 3082 3078 3074 3070 3066 3063 3059 3061 3061 3061 3061 3060 3060 3060 3060 3060 3062 3064 3066
3147 3146 3144 3143 3141 3139 3136 3133 3130 3127 3125 3122 3118 3114 3110 3106 3101 3094 3087 3082 3079 3082 3078 3072 3067 3064 3060 3057 3053 3048 3045 3042 3041 3041 3041 3041 3041 3041 3042 3044 3045 3047 3050
3144 3143 3142 3140 3138 3136 3132 3130 3127 3124 3120 3116 3112 3108 3103 3098 3092 3087 3080 3074 3066 3063 3061 3061 3058 3050 3044 3039 3037 3033 3029 3025 3023 3022 3021 3022 3022 3022 3023 3024 3027 3030 3032
3141 3140 3139 3137 3134 3131 3128 3125 3122 3118 3115 3111 3106 3101 3096 3091 3084 3078 3071 3064 3056 3051 3047 3042 3038 3036 3033 3026 3017 3014 3011 3008 3005 3003 3003 3002 3001 3002 3003 3004 3005 3008 3012
3137 3136 3134 3132 3129 3125 3122 3119 3116 3112 3108 3104 3099 3094 3088 3083 3076 3070 3064 3057 3047 3038 3033 3027 3021 3018 3012 3011 3006 2998 2992 2988 2986 2984 2982 2981 2980 2979 2981 2984 2985 2987 2991
3133 3132 3129 3126 3124 3121 3118 3115 3112 3107 3103 3098 3093 3087 3081 3075 3068 3061 3054 3047 3040 3031 3020 3015 3008 3001 2994 2990 2988 2984 2978 2972 2965 2964 2962 2958 2957 2956 2957 2959 2964 2967 2969
3130 3127 3124 3123 3121 3118 3114 3110 3106 3101 3096 3091 3085 3079 3073 3066 3059 3053 3046 3038 3031 3022 3010 3005 2995 2989 2983 2975 2970 2967 2962 2956 2950 2944 2940 2939 2936 2934 2937 2938 2940 2944 2948
3124 3123 3122 3120 3116 3112 3109 3104 3100 3095 3090 3085 3079 3072 3064 3057 3050 3042 3035 3027 3019 3011 3000 2988 2984 2977 2972 2966 2956 2948 2944 2941 2933 2927 2923 2919 2917 2917 2921 2918 2919 2921 2925
3121 3120 3118 3115 3112 3108 3103 3099 3095 3090 3084 3077 3071 3064 3056 3049 3042 3033 3025 3017 3009 3001 2992 2979 2970 2967 2959 2951 2943 2937 2929 2923 2918 2912 2907 2902 2900 2900 2899 2898 2901 2901 2903
3117 3116 3114 3111 3107 3103 3099 3094 3089 3083 3077 3070 3063 3056 3049 3041 3032 3023 3015 3006 2998 2989 2980 2970 2961 2953 2948 2942 2930 2920 2916 2910 2901 2898 2892 2887 2884 2883 2883 2884 2884 2883 2885
3113 3111 3109 3105 3101 3097 3093 3088 3082 3076 3069 3063 3057 3050 3042 3033 3026 3018 3007 2998 2987 2977 2968 2958 2951 2943 2937 2929 2919 2911 2901 2894 2889 2882 2875 2871 2867 2867 2868 2869 2869 2871 2870
3108 3106 3104 3101 3097 3092 3087 3081 3075 3068 3062 3057 3051 3044 3035 3027 3020 3012 3003 2993 2981 2968 2960 2949 2942 2932 2926 2918 2910 2901 2891 2883 2873 2871 2858 2856 2853 2854 2855 2855 2857 2857 2857
3104 3102 3099 3096 3092 3088 3083 3077 3071 3064 3058 3051 3044 3036 3028 3020 3011 3003 2995 2985 2975 2965 2954 2942 2934 2926 2917 2909 2901 2892 2885 2878 2871 2862 2849 2842 2841 2842 2842 2844 2845 2847 2845
3100 3097 3094 3090 3086 3082 3078 3072 3066 3060 3054 3046 3038 3030 3022 3013 3004 2996 2987 2977 2968 2958 2949 2939 2928 2919 2912 2904 2897 2887 2878 2870 2866 2858 2845 2833 2832 2833 2834 2836 2838 2836 2834
3096 3093 3090 3086 3081 3076 3072 3067 3062 3056 3049 3042 3035 3026 3017 3008 2999 2989 2980 2970 2961 2952 2944 2936 2925 2916 2907 2900 2892 2882 2875 2865 2857 2853 2844 2829 2827 2825 2828 2831 2830 2829 2827
3091 3089 3085 3081 3076 3071 3066 3061 3055 3049 3043 3037 3030 3022 3015 3005 2994 2984 2973 2962 2953 2945 2935 2927 2919 2910 2902 2895 2888 2880 2870 2861 2853 2845 2841 2830 2827 2823 2822 2826 2825 2823 2820